CES7194 RJAA-ZSOF

Flight info

Callsign CES7194
Flight time 3h 21m
Altitude 33000
Route REDEK Y60 ISAKY Y592 POTET A593 PK R343 MADUK
Aircraft B738/L-V/N

Departure

Time 2026-04-19 04:37
Airport Narita International Airport (RJAA)

Arrival

Time 2026-04-19 07:59
Airport Hefei Xinqiao International Airport (ZSOF)
Time Latitude Longitude Altitude Speed Heading
2026-04-19 04:20 35.75848 140.38516 142 ft 2 kts 59°
2026-04-19 04:20 35.75843 140.38506 142 ft 2 kts 59°
2026-04-19 04:20 35.75831 140.38496 142 ft 2 kts
2026-04-19 04:21 35.75820 140.38498 142 ft 0 kts 332°
2026-04-19 04:21 35.75827 140.38495 142 ft 4 kts 334°
2026-04-19 04:21 35.75868 140.38466 142 ft 7 kts 329°
2026-04-19 04:21 35.75915 140.38432 142 ft 7 kts 329°
2026-04-19 04:22 35.75962 140.38399 142 ft 7 kts 329°
2026-04-19 04:22 35.76009 140.38365 142 ft 7 kts 329°
2026-04-19 04:22 35.76047 140.38338 142 ft 3 kts 329°
2026-04-19 04:22 35.76063 140.38312 142 ft 3 kts 287°
2026-04-19 04:23 35.76060 140.38280 142 ft 3 kts 243°
2026-04-19 04:23 35.76039 140.38234 142 ft 6 kts 240°
2026-04-19 04:23 35.76015 140.38182 142 ft 4 kts 239°
2026-04-19 04:23 35.76007 140.38147 142 ft 4 kts 274°
2026-04-19 04:24 35.76020 140.38113 142 ft 4 kts 312°
2026-04-19 04:24 35.76052 140.38089 142 ft 7 kts 329°
2026-04-19 04:24 35.76099 140.38054 142 ft 7 kts 329°
2026-04-19 04:24 35.76145 140.38020 142 ft 7 kts 329°
2026-04-19 04:25 35.76191 140.37987 142 ft 7 kts 329°
2026-04-19 04:25 35.76238 140.37952 142 ft 7 kts 329°
2026-04-19 04:25 35.76284 140.37918 142 ft 7 kts 329°
2026-04-19 04:25 35.76331 140.37885 142 ft 7 kts 329°
2026-04-19 04:26 35.76377 140.37851 142 ft 7 kts 329°
2026-04-19 04:26 35.76424 140.37816 142 ft 7 kts 329°
2026-04-19 04:26 35.76470 140.37782 142 ft 7 kts 329°
2026-04-19 04:26 35.76516 140.37749 142 ft 7 kts 329°
2026-04-19 04:27 35.76563 140.37715 142 ft 7 kts 329°
2026-04-19 04:27 35.76609 140.37682 142 ft 7 kts 329°
2026-04-19 04:27 35.76656 140.37646 142 ft 7 kts 329°
2026-04-19 04:27 35.76701 140.37614 142 ft 7 kts 329°
2026-04-19 04:28 35.76748 140.37579 142 ft 7 kts 329°
2026-04-19 04:28 35.76794 140.37546 142 ft 7 kts 329°
2026-04-19 04:28 35.76841 140.37512 142 ft 7 kts 329°
2026-04-19 04:28 35.76886 140.37479 142 ft 7 kts 328°
2026-04-19 04:29 35.76934 140.37444 142 ft 7 kts 329°
2026-04-19 04:29 35.76981 140.37410 142 ft 7 kts 329°
2026-04-19 04:29 35.77027 140.37375 142 ft 7 kts 329°
2026-04-19 04:29 35.77073 140.37343 142 ft 7 kts 329°
2026-04-19 04:30 35.77119 140.37309 142 ft 7 kts 330°
2026-04-19 04:30 35.77166 140.37276 142 ft 7 kts 330°
2026-04-19 04:30 35.77213 140.37244 142 ft 7 kts 330°
2026-04-19 04:30 35.77261 140.37210 142 ft 7 kts 330°
2026-04-19 04:31 35.77307 140.37177 142 ft 7 kts 330°
2026-04-19 04:31 35.77354 140.37144 142 ft 7 kts 330°
2026-04-19 04:31 35.77401 140.37112 142 ft 7 kts 330°
2026-04-19 04:31 35.77447 140.37080 142 ft 6 kts 331°
2026-04-19 04:32 35.77470 140.37064 142 ft 1 kts 330°
2026-04-19 04:32 35.77483 140.37053 142 ft 4 kts 316°
2026-04-19 04:32 35.77498 140.37016 142 ft 4 kts 281°
2026-04-19 04:32 35.77494 140.36977 142 ft 3 kts 247°
2026-04-19 04:33 35.77490 140.36966 142 ft 0 kts 240°
2026-04-19 04:34 35.77489 140.36964 142 ft 0 kts 240°
2026-04-19 04:34 35.77485 140.36957 142 ft 1 kts 240°
2026-04-19 04:35 35.77482 140.36951 142 ft 1 kts 241°
2026-04-19 04:35 35.77475 140.36934 142 ft 2 kts 237°
2026-04-19 04:35 35.77464 140.36912 142 ft 3 kts 237°
2026-04-19 04:35 35.77446 140.36879 142 ft 5 kts 234°
2026-04-19 04:36 35.77414 140.36856 142 ft 6 kts 180°
2026-04-19 04:36 35.77377 140.36873 142 ft 1 kts 150°
2026-04-19 04:36 35.77375 140.36874 142 ft 2 kts 149°
2026-04-19 04:36 35.77206 140.36999 142 ft 63 kts 149°
2026-04-19 04:37 35.76620 140.37422 142 ft 128 kts 149°
2026-04-19 04:37 35.75682 140.38077 178 ft 177 kts 148°
2026-04-19 04:37 35.74604 140.38814 794 ft 182 kts 146°
2026-04-19 04:37 35.73539 140.39612 1571 ft 182 kts 144°
2026-04-19 04:38 35.72437 140.40456 2117 ft 191 kts 145°
2026-04-19 04:38 35.71264 140.41360 2562 ft 208 kts 146°
2026-04-19 04:38 35.70020 140.42300 3051 ft 224 kts 147°
2026-04-19 04:38 35.68574 140.43321 3351 ft 252 kts 149°
2026-04-19 04:39 35.66978 140.44420 3793 ft 275 kts 148°
2026-04-19 04:39 35.65350 140.45573 4831 ft 273 kts 148°
2026-04-19 04:39 35.63695 140.46738 5714 ft 277 kts 148°
2026-04-19 04:39 35.62049 140.47906 6571 ft 281 kts 147°
2026-04-19 04:40 35.60339 140.49115 7350 ft 287 kts 147°
2026-04-19 04:40 35.58619 140.50333 8187 ft 290 kts 147°
2026-04-19 04:40 35.56878 140.51575 8932 ft 296 kts 147°
2026-04-19 04:40 35.55092 140.52856 9712 ft 300 kts 147°
2026-04-19 04:41 35.53283 140.54169 10385 ft 308 kts 147°
2026-04-19 04:41 35.51377 140.55566 10596 ft 331 kts 147°
2026-04-19 04:41 35.49273 140.56911 10833 ft 353 kts 157°
2026-04-19 04:41 35.46859 140.57642 11343 ft 365 kts 175°
2026-04-19 04:42 35.44354 140.57451 12038 ft 369 kts 192°
2026-04-19 04:42 35.41946 140.56438 12687 ft 372 kts 208°
2026-04-19 04:42 35.39844 140.54584 13440 ft 371 kts 226°
2026-04-19 04:42 35.38279 140.52081 14169 ft 370 kts 239°
2026-04-19 04:43 35.37037 140.49362 14829 ft 373 kts 245°
2026-04-19 04:43 35.36143 140.46385 15454 ft 374 kts 257°
2026-04-19 04:43 35.35922 140.43207 16074 ft 376 kts 275°
2026-04-19 04:43 35.36426 140.40094 16812 ft 374 kts 284°
2026-04-19 04:44 35.37120 140.37038 17267 ft 380 kts 285°
2026-04-19 04:44 35.37822 140.33905 17908 ft 381 kts 284°
2026-04-19 04:44 35.38523 140.30768 18492 ft 383 kts 284°
2026-04-19 04:44 35.39235 140.27620 19096 ft 383 kts 284°
2026-04-19 04:45 35.39945 140.24504 19723 ft 383 kts 284°
2026-04-19 04:45 35.40667 140.21336 20289 ft 383 kts 284°
2026-04-19 04:45 35.41372 140.18230 20827 ft 384 kts 284°
2026-04-19 04:45 35.42089 140.15065 21380 ft 384 kts 283°
2026-04-19 04:46 35.42801 140.11922 21886 ft 385 kts 283°
2026-04-19 04:46 35.43519 140.08751 22397 ft 385 kts 283°
2026-04-19 04:46 35.44228 140.05614 22877 ft 386 kts 283°
2026-04-19 04:46 35.44944 140.02443 23363 ft 386 kts 283°
2026-04-19 04:47 35.45662 139.99254 23808 ft 387 kts 283°
2026-04-19 04:47 35.46379 139.96068 24219 ft 388 kts 282°
2026-04-19 04:47 35.47001 139.92876 24614 ft 388 kts 276°
2026-04-19 04:47 35.47156 139.89551 24978 ft 387 kts 266°
2026-04-19 04:48 35.46812 139.86285 25386 ft 387 kts 257°
2026-04-19 04:48 35.45980 139.83136 25721 ft 390 kts 250°
2026-04-19 04:48 35.44963 139.80026 26131 ft 389 kts 250°
2026-04-19 04:48 35.43993 139.76952 26464 ft 391 kts 250°
2026-04-19 04:49 35.43013 139.73799 26783 ft 392 kts 250°
2026-04-19 04:49 35.42039 139.70703 27124 ft 393 kts 250°
2026-04-19 04:49 35.41049 139.67575 27426 ft 394 kts 250°
2026-04-19 04:49 35.40043 139.64395 27738 ft 395 kts 250°
2026-04-19 04:50 35.39051 139.61264 28023 ft 397 kts 250°
2026-04-19 04:50 35.38043 139.58087 28309 ft 398 kts 250°
2026-04-19 04:50 35.37042 139.54933 28607 ft 398 kts 250°
2026-04-19 04:50 35.36057 139.51770 29065 ft 394 kts 251°
2026-04-19 04:51 35.35228 139.48621 29470 ft 391 kts 255°
2026-04-19 04:51 35.34663 139.45361 29852 ft 389 kts 262°
2026-04-19 04:51 35.34429 139.42090 30276 ft 386 kts 265°
2026-04-19 04:51 35.34268 139.38827 30660 ft 383 kts 265°
2026-04-19 04:52 35.34088 139.35548 30940 ft 383 kts 265°
2026-04-19 04:52 35.33912 139.32297 31428 ft 378 kts 264°
2026-04-19 04:52 35.33751 139.29114 31893 ft 373 kts 264°
2026-04-19 04:52 35.33599 139.25978 32282 ft 370 kts 264°
2026-04-19 04:53 35.33447 139.22849 32683 ft 366 kts 264°
2026-04-19 04:53 35.33291 139.19760 32986 ft 364 kts 264°
2026-04-19 04:53 35.32986 139.13567 32995 ft 362 kts 265°
2026-04-19 04:54 35.32693 139.07452 32997 ft 360 kts 264°
2026-04-19 04:54 35.32386 139.01340 32999 ft 360 kts 264°
2026-04-19 04:55 35.32081 138.95184 33000 ft 362 kts 264°
2026-04-19 04:55 35.31773 138.89050 33000 ft 362 kts 264°
2026-04-19 04:56 35.31463 138.82922 33000 ft 362 kts 264°
2026-04-19 04:56 35.31149 138.76767 33000 ft 362 kts 264°
2026-04-19 04:57 35.30833 138.70598 33000 ft 362 kts 265°
2026-04-19 04:57 35.30514 138.64455 33000 ft 362 kts 265°
2026-04-19 04:58 35.30191 138.58325 33000 ft 362 kts 265°
2026-04-19 04:58 35.29867 138.52177 33027 ft 362 kts 264°
2026-04-19 04:59 35.29538 138.46037 33027 ft 362 kts 264°
2026-04-19 04:59 35.29202 138.39845 33027 ft 368 kts 264°
2026-04-19 05:00 35.28857 138.33531 33028 ft 376 kts 264°
2026-04-19 05:00 35.28503 138.27094 33027 ft 385 kts 264°
2026-04-19 05:01 35.28138 138.20531 33026 ft 388 kts 264°
2026-04-19 05:01 35.27770 138.13976 33026 ft 386 kts 264°
2026-04-19 05:02 35.27397 138.07407 33027 ft 386 kts 264°
2026-04-19 05:02 35.27024 138.00885 33027 ft 386 kts 264°
2026-04-19 05:03 35.26648 137.94347 33026 ft 387 kts 264°
2026-04-19 05:03 35.26263 137.87761 33023 ft 387 kts 264°
2026-04-19 05:04 35.25877 137.81216 33022 ft 387 kts 264°
2026-04-19 05:04 35.25422 137.74643 33020 ft 386 kts 263°
2026-04-19 05:05 35.24924 137.68117 33020 ft 386 kts 263°
2026-04-19 05:05 35.24329 137.61581 33020 ft 386 kts 259°
2026-04-19 05:06 35.22841 137.55310 33020 ft 386 kts 251°
2026-04-19 05:06 35.21128 137.49129 33020 ft 386 kts 252°
2026-04-19 05:07 35.19400 137.42949 33019 ft 385 kts 251°
2026-04-19 05:07 35.17650 137.36789 33020 ft 384 kts 251°
2026-04-19 05:08 35.15001 137.27528 33020 ft 385 kts 251°
2026-04-19 05:09 35.13243 137.21416 33019 ft 383 kts 251°
2026-04-19 05:09 35.11470 137.15279 33020 ft 383 kts 251°
2026-04-19 05:10 35.09687 137.09120 33020 ft 384 kts 251°
2026-04-19 05:10 35.07912 137.03005 33020 ft 384 kts 251°
2026-04-19 05:11 35.06132 136.96884 33020 ft 383 kts 251°
2026-04-19 05:11 35.04342 136.90742 33020 ft 383 kts 251°
2026-04-19 05:12 35.02549 136.84598 33020 ft 383 kts 250°
2026-04-19 05:12 35.00777 136.78467 33019 ft 383 kts 252°
2026-04-19 05:13 34.99269 136.72273 33020 ft 383 kts 253°
2026-04-19 05:13 34.97729 136.66025 33020 ft 383 kts 253°
2026-04-19 05:14 34.96196 136.59824 33020 ft 384 kts 253°
2026-04-19 05:14 34.94650 136.53612 33020 ft 383 kts 253°
2026-04-19 05:15 34.93103 136.47414 33019 ft 383 kts 253°
2026-04-19 05:15 34.91550 136.41206 33020 ft 382 kts 253°
2026-04-19 05:16 34.90002 136.35037 33020 ft 382 kts 253°
2026-04-19 05:16 34.88446 136.28827 33020 ft 383 kts 252°
2026-04-19 05:17 34.86892 136.22672 33020 ft 381 kts 252°
2026-04-19 05:17 34.85334 136.16511 33020 ft 381 kts 252°
2026-04-19 05:18 34.83777 136.10365 33020 ft 381 kts 252°
2026-04-19 05:18 34.82207 136.04181 33013 ft 380 kts 252°
2026-04-19 05:19 34.80653 135.98073 32999 ft 381 kts 252°
2026-04-19 05:19 34.79082 135.91914 32986 ft 382 kts 252°
2026-04-19 05:20 34.77496 135.85712 32971 ft 382 kts 252°
2026-04-19 05:20 34.75914 135.79536 32966 ft 382 kts 252°
2026-04-19 05:21 34.74337 135.73401 32966 ft 382 kts 252°
2026-04-19 05:21 34.72740 135.67197 32966 ft 382 kts 252°
2026-04-19 05:22 34.71151 135.61041 32966 ft 382 kts 252°
2026-04-19 05:22 34.69551 135.54854 32966 ft 382 kts 252°
2026-04-19 05:23 34.67956 135.48703 32966 ft 382 kts 252°
2026-04-19 05:23 34.66349 135.42519 32966 ft 383 kts 252°
2026-04-19 05:24 34.64949 135.36272 32966 ft 385 kts 257°
2026-04-19 05:24 34.63871 135.29930 32966 ft 385 kts 256°
2026-04-19 05:25 34.62726 135.23553 32966 ft 386 kts 256°
2026-04-19 05:25 34.61591 135.17218 32966 ft 385 kts 255°
2026-04-19 05:26 34.60441 135.10840 32966 ft 386 kts 255°
2026-04-19 05:26 34.59300 135.04530 32980 ft 385 kts 255°
2026-04-19 05:27 34.58143 134.98149 32995 ft 386 kts 255°
2026-04-19 05:27 34.56988 134.91814 33009 ft 386 kts 255°
2026-04-19 05:28 34.55828 134.85467 33020 ft 386 kts 255°
2026-04-19 05:28 34.54660 134.79100 33020 ft 387 kts 255°
2026-04-19 05:29 34.53493 134.72754 33019 ft 387 kts 255°
2026-04-19 05:29 34.52322 134.66400 33020 ft 386 kts 255°
2026-04-19 05:30 34.51150 134.60057 33020 ft 386 kts 255°
2026-04-19 05:30 34.49973 134.53725 33020 ft 386 kts 255°
2026-04-19 05:31 34.48789 134.47366 33020 ft 386 kts 255°
2026-04-19 05:31 34.47613 134.41069 33020 ft 386 kts 255°
2026-04-19 05:32 34.46421 134.34706 33020 ft 386 kts 255°
2026-04-19 05:32 34.45237 134.28395 33020 ft 386 kts 255°
2026-04-19 05:33 34.44040 134.22046 33020 ft 386 kts 255°
2026-04-19 05:33 34.42847 134.15736 33020 ft 385 kts 255°
2026-04-19 05:34 34.41647 134.09401 33020 ft 385 kts 255°
2026-04-19 05:34 34.40447 134.03087 33020 ft 385 kts 255°
2026-04-19 05:35 34.39248 133.96796 33020 ft 386 kts 255°
2026-04-19 05:35 34.38039 133.90469 33020 ft 386 kts 255°
2026-04-19 05:36 34.36825 133.84139 33020 ft 386 kts 255°
2026-04-19 05:36 34.35606 133.77800 33020 ft 386 kts 255°
2026-04-19 05:37 34.34387 133.71478 33020 ft 386 kts 255°
2026-04-19 05:37 34.33168 133.65158 33019 ft 387 kts 255°
2026-04-19 05:38 34.31927 133.58835 33019 ft 387 kts 253°
2026-04-19 05:38 34.30215 133.52687 33020 ft 386 kts 249°
2026-04-19 05:39 34.28460 133.46591 33020 ft 387 kts 250°
2026-04-19 05:39 34.26696 133.40430 33020 ft 387 kts 250°
2026-04-19 05:40 34.24930 133.34259 33021 ft 388 kts 249°
2026-04-19 05:40 34.23170 133.28124 33019 ft 389 kts 249°
2026-04-19 05:41 34.21394 133.21953 33016 ft 389 kts 249°
2026-04-19 05:41 34.19614 133.15778 33013 ft 389 kts 249°
2026-04-19 05:42 34.17843 133.09637 33010 ft 390 kts 249°
2026-04-19 05:42 34.16058 133.03471 33007 ft 390 kts 249°
2026-04-19 05:43 34.14265 132.97286 33004 ft 390 kts 249°
2026-04-19 05:43 34.12478 132.91127 33000 ft 391 kts 249°
2026-04-19 05:44 34.10669 132.84917 32998 ft 392 kts 249°
2026-04-19 05:44 34.08860 132.78711 32995 ft 392 kts 249°
2026-04-19 05:45 34.07058 132.72542 32993 ft 393 kts 249°
2026-04-19 05:45 34.05237 132.66332 32992 ft 392 kts 249°
2026-04-19 05:46 34.03424 132.60156 32993 ft 391 kts 249°
2026-04-19 05:46 34.01603 132.53966 32993 ft 392 kts 249°
2026-04-19 05:47 33.99783 132.47797 32993 ft 392 kts 249°
2026-04-19 05:47 33.97976 132.41669 32993 ft 388 kts 249°
2026-04-19 05:48 33.96170 132.35574 32994 ft 389 kts 249°
2026-04-19 05:48 33.94334 132.29385 32993 ft 390 kts 248°
2026-04-19 05:49 33.92509 132.23254 32992 ft 390 kts 248°
2026-04-19 05:49 33.90802 132.17082 32993 ft 391 kts 252°
2026-04-19 05:50 33.89471 132.10716 32993 ft 392 kts 252°
2026-04-19 05:50 33.88083 132.04373 32993 ft 392 kts 252°
2026-04-19 05:51 33.86695 131.98053 32993 ft 392 kts 252°
2026-04-19 05:51 33.85294 131.91708 32993 ft 392 kts 252°
2026-04-19 05:52 33.83891 131.85387 32993 ft 392 kts 252°
2026-04-19 05:52 33.82495 131.79112 32992 ft 391 kts 252°
2026-04-19 05:53 33.81080 131.72778 32993 ft 391 kts 252°
2026-04-19 05:53 33.79676 131.66509 32993 ft 391 kts 252°
2026-04-19 05:54 33.78258 131.60190 32992 ft 390 kts 252°
2026-04-19 05:54 33.76851 131.53940 32993 ft 390 kts 252°
2026-04-19 05:55 33.75437 131.47676 32993 ft 390 kts 252°
2026-04-19 05:55 33.74014 131.41383 32993 ft 389 kts 252°
2026-04-19 05:56 33.72599 131.35147 32993 ft 389 kts 252°
2026-04-19 05:56 33.71175 131.28879 32993 ft 389 kts 252°
2026-04-19 05:57 33.69752 131.22643 32993 ft 388 kts 252°
2026-04-19 05:57 33.68324 131.16389 32993 ft 388 kts 251°
2026-04-19 05:58 33.66892 131.10144 32993 ft 388 kts 251°
2026-04-19 05:58 33.65464 131.03931 32993 ft 388 kts 251°
2026-04-19 05:59 33.64030 130.97707 32987 ft 388 kts 251°
2026-04-19 05:59 33.62582 130.91438 32979 ft 388 kts 251°
2026-04-19 06:00 33.61138 130.85199 32972 ft 389 kts 251°
2026-04-19 06:00 33.59685 130.78938 32965 ft 390 kts 251°
2026-04-19 06:01 33.58231 130.72678 32963 ft 390 kts 251°
2026-04-19 06:01 33.56771 130.66426 32960 ft 391 kts 251°
2026-04-19 06:02 33.55300 130.60136 32958 ft 391 kts 251°
2026-04-19 06:02 33.53824 130.53838 32956 ft 392 kts 251°
2026-04-19 06:03 33.52344 130.47542 32953 ft 392 kts 251°
2026-04-19 06:03 33.50441 130.41428 32951 ft 389 kts 244°
2026-04-19 06:04 33.48172 130.35584 32947 ft 390 kts 244°
2026-04-19 06:04 33.45898 130.29639 32942 ft 391 kts 243°
2026-04-19 06:05 33.43622 130.23778 32939 ft 391 kts 243°
2026-04-19 06:05 33.41327 130.17885 32938 ft 390 kts 243°
2026-04-19 06:06 33.39026 130.11997 32939 ft 389 kts 243°
2026-04-19 06:06 33.36739 130.06155 32939 ft 389 kts 243°
2026-04-19 06:07 33.34446 130.00304 32939 ft 389 kts 243°
2026-04-19 06:07 33.32135 129.94424 32939 ft 392 kts 243°
2026-04-19 06:08 33.29828 129.88567 32939 ft 392 kts 243°
2026-04-19 06:08 33.27505 129.82675 32939 ft 391 kts 243°
2026-04-19 06:09 33.25182 129.76796 32939 ft 391 kts 243°
2026-04-19 06:09 33.22859 129.70926 32939 ft 391 kts 243°
2026-04-19 06:10 33.20547 129.65080 32939 ft 390 kts 244°
2026-04-19 06:10 33.18476 129.59079 32939 ft 391 kts 246°
2026-04-19 06:11 33.16449 129.53085 32939 ft 391 kts 246°
2026-04-19 06:11 33.14405 129.47092 32939 ft 391 kts 246°
2026-04-19 06:12 33.11325 129.38091 32939 ft 391 kts 246°
2026-04-19 06:12 33.09270 129.32100 32938 ft 391 kts 245°
2026-04-19 06:13 33.07206 129.26105 32939 ft 391 kts 245°
2026-04-19 06:13 33.05149 129.20140 32939 ft 391 kts 245°
2026-04-19 06:14 33.03084 129.14165 32939 ft 391 kts 245°
2026-04-19 06:14 33.01014 129.08183 32939 ft 392 kts 245°
2026-04-19 06:15 32.98936 129.02193 32939 ft 392 kts 245°
2026-04-19 06:15 32.96845 128.96175 32939 ft 392 kts 245°
2026-04-19 06:16 32.94762 128.90181 32939 ft 393 kts 245°
2026-04-19 06:16 32.92675 128.84199 32941 ft 392 kts 245°
2026-04-19 06:17 32.90608 128.78258 32939 ft 387 kts 245°
2026-04-19 06:17 32.88538 128.72365 32939 ft 389 kts 245°
2026-04-19 06:18 32.86448 128.66411 32939 ft 389 kts 245°
2026-04-19 06:18 32.84367 128.60487 32939 ft 389 kts 245°
2026-04-19 06:19 32.82293 128.54597 32939 ft 389 kts 245°
2026-04-19 06:19 32.80197 128.48654 32939 ft 389 kts 245°
2026-04-19 06:20 32.78109 128.42741 32939 ft 388 kts 245°
2026-04-19 06:20 32.76029 128.36862 32939 ft 388 kts 245°
2026-04-19 06:21 32.73947 128.30988 32939 ft 388 kts 245°
2026-04-19 06:21 32.71851 128.25082 32938 ft 387 kts 245°
2026-04-19 06:22 32.69758 128.19194 32939 ft 386 kts 245°
2026-04-19 06:22 32.67674 128.13351 32941 ft 386 kts 245°
2026-04-19 06:23 32.65599 128.07539 32947 ft 384 kts 245°
2026-04-19 06:23 32.63514 128.01710 32954 ft 384 kts 245°
2026-04-19 06:24 32.61420 127.95863 32961 ft 388 kts 245°
2026-04-19 06:24 32.59309 127.89981 32966 ft 388 kts 245°
2026-04-19 06:25 32.57192 127.84094 32966 ft 387 kts 245°
2026-04-19 06:25 32.55084 127.78240 32966 ft 387 kts 245°
2026-04-19 06:26 32.52972 127.72388 32966 ft 387 kts 245°
2026-04-19 06:26 32.50850 127.66515 32966 ft 388 kts 245°
2026-04-19 06:27 32.48742 127.60692 32966 ft 387 kts 245°
2026-04-19 06:27 32.46618 127.54836 32964 ft 388 kts 245°
2026-04-19 06:28 32.44490 127.48977 32960 ft 389 kts 245°
2026-04-19 06:28 32.42354 127.43108 32957 ft 389 kts 245°
2026-04-19 06:29 32.40215 127.37242 32953 ft 390 kts 245°
2026-04-19 06:29 32.38055 127.31322 32950 ft 391 kts 245°
2026-04-19 06:30 32.35901 127.25435 32945 ft 391 kts 245°
2026-04-19 06:30 32.33746 127.19559 32942 ft 392 kts 245°
2026-04-19 06:31 32.31567 127.13622 32945 ft 393 kts 245°
2026-04-19 06:31 32.29400 127.07730 32952 ft 393 kts 245°
2026-04-19 06:32 32.27559 127.01667 32960 ft 396 kts 252°
2026-04-19 06:32 32.26177 126.95366 32965 ft 396 kts 252°
2026-04-19 06:33 32.24770 126.89112 32966 ft 396 kts 252°
2026-04-19 06:33 32.23370 126.82814 32966 ft 396 kts 252°
2026-04-19 06:34 32.21978 126.76546 32966 ft 396 kts 252°
2026-04-19 06:34 32.20586 126.70274 32966 ft 397 kts 252°
2026-04-19 06:35 32.19185 126.63967 32966 ft 397 kts 252°
2026-04-19 06:35 32.17835 126.57694 32966 ft 396 kts 252°
2026-04-19 06:36 32.16476 126.51407 32966 ft 396 kts 252°
2026-04-19 06:36 32.15107 126.45089 32966 ft 396 kts 252°
2026-04-19 06:37 32.13744 126.38815 32966 ft 396 kts 252°
2026-04-19 06:37 32.12377 126.32539 32965 ft 395 kts 252°
2026-04-19 06:38 32.11008 126.26272 32966 ft 395 kts 252°
2026-04-19 06:38 32.09636 126.20014 32966 ft 395 kts 252°
2026-04-19 06:39 32.08266 126.13776 32966 ft 394 kts 252°
2026-04-19 06:39 32.06892 126.07539 32966 ft 394 kts 252°
2026-04-19 06:40 32.05536 126.01293 32966 ft 394 kts 252°
2026-04-19 06:40 32.04203 125.95054 32966 ft 394 kts 252°
2026-04-19 06:41 32.02857 125.88794 32966 ft 394 kts 252°
2026-04-19 06:41 32.01509 125.82542 32966 ft 395 kts 252°
2026-04-19 06:42 32.00146 125.76259 32965 ft 396 kts 252°
2026-04-19 06:42 31.98768 125.70055 32966 ft 394 kts 252°
2026-04-19 06:43 31.97379 125.63803 32966 ft 394 kts 252°
2026-04-19 06:43 31.95997 125.57595 32965 ft 395 kts 252°
2026-04-19 06:44 31.94604 125.51347 32966 ft 395 kts 252°
2026-04-19 06:44 31.93202 125.45080 32941 ft 396 kts 252°
2026-04-19 06:45 31.91802 125.38839 32939 ft 397 kts 252°
2026-04-19 06:45 31.90391 125.32565 32938 ft 397 kts 252°
2026-04-19 06:46 31.88979 125.26301 32939 ft 398 kts 252°
2026-04-19 06:46 31.87561 125.20023 32939 ft 398 kts 252°
2026-04-19 06:47 31.86130 125.13712 32939 ft 399 kts 252°
2026-04-19 06:47 31.84693 125.07385 32939 ft 401 kts 252°
2026-04-19 06:48 31.83257 125.01070 32939 ft 402 kts 252°
2026-04-19 06:48 31.81857 124.94724 32939 ft 404 kts 253°
2026-04-19 06:49 31.80489 124.88328 32939 ft 404 kts 253°
2026-04-19 06:49 31.79095 124.81908 32938 ft 405 kts 253°
2026-04-19 06:50 31.77707 124.75513 32939 ft 407 kts 253°
2026-04-19 06:50 31.76302 124.69074 32939 ft 409 kts 253°
2026-04-19 06:51 31.74887 124.62592 32939 ft 410 kts 254°
2026-04-19 06:51 31.73471 124.56134 32938 ft 411 kts 254°
2026-04-19 06:52 31.72044 124.49643 32939 ft 412 kts 254°
2026-04-19 06:52 31.70615 124.43150 32939 ft 413 kts 254°
2026-04-19 06:53 31.69175 124.36636 32939 ft 414 kts 254°
2026-04-19 06:53 31.67728 124.30100 32938 ft 414 kts 253°
2026-04-19 06:54 31.66277 124.23570 32939 ft 415 kts 253°
2026-04-19 06:54 31.64817 124.17014 32938 ft 414 kts 253°
2026-04-19 06:55 31.63362 124.10492 32939 ft 415 kts 253°
2026-04-19 06:55 31.61902 124.03968 32939 ft 415 kts 253°
2026-04-19 06:56 31.60437 123.97409 32939 ft 416 kts 254°
2026-04-19 06:56 31.59012 123.90859 32939 ft 417 kts 254°
2026-04-19 06:57 31.57576 123.84288 32939 ft 417 kts 254°
2026-04-19 06:57 31.56131 123.77697 32939 ft 417 kts 254°
2026-04-19 06:58 31.54684 123.71121 32939 ft 417 kts 254°
2026-04-19 06:58 31.53248 123.64599 32938 ft 416 kts 254°
2026-04-19 06:59 31.51796 123.58041 32939 ft 415 kts 254°
2026-04-19 06:59 31.50354 123.51537 32939 ft 415 kts 255°
2026-04-19 07:00 31.49021 123.44971 32938 ft 416 kts 257°
2026-04-19 07:00 31.47790 123.38331 32939 ft 417 kts 256°
2026-04-19 07:01 31.46537 123.31720 32938 ft 417 kts 256°
2026-04-19 07:01 31.45287 123.25120 32939 ft 417 kts 256°
2026-04-19 07:02 31.44019 123.18491 32939 ft 417 kts 256°
2026-04-19 07:02 31.42747 123.11858 32939 ft 417 kts 256°
2026-04-19 07:03 31.41476 123.05248 32939 ft 418 kts 256°
2026-04-19 07:03 31.40189 122.98580 32939 ft 419 kts 256°
2026-04-19 07:04 31.38905 122.91945 32939 ft 420 kts 256°
2026-04-19 07:04 31.37611 122.85271 32939 ft 420 kts 256°
2026-04-19 07:05 31.36316 122.78621 32939 ft 421 kts 257°
2026-04-19 07:05 31.35032 122.71927 32939 ft 422 kts 257°
2026-04-19 07:06 31.33765 122.65263 32939 ft 422 kts 257°
2026-04-19 07:06 31.32484 122.58568 32939 ft 423 kts 257°
2026-04-19 07:07 31.31193 122.51826 32939 ft 424 kts 257°
2026-04-19 07:07 31.29904 122.45126 32939 ft 424 kts 257°
2026-04-19 07:08 31.28625 122.38383 32939 ft 425 kts 258°
2026-04-19 07:08 31.27360 122.31640 32939 ft 425 kts 257°
2026-04-19 07:09 31.26092 122.24927 32939 ft 425 kts 257°
2026-04-19 07:09 31.24810 122.18169 32939 ft 425 kts 257°
2026-04-19 07:10 31.23530 122.11436 32939 ft 426 kts 257°
2026-04-19 07:10 31.22243 122.04683 32939 ft 426 kts 257°
2026-04-19 07:11 31.20951 121.97934 32936 ft 427 kts 258°
2026-04-19 07:11 31.19646 121.91110 32939 ft 432 kts 258°
2026-04-19 07:12 31.18987 121.87693 32829 ft 434 kts 258°
2026-04-19 07:12 31.18320 121.84219 32571 ft 435 kts 259°
2026-04-19 07:12 31.17845 121.80769 32320 ft 433 kts 265°
2026-04-19 07:12 31.17792 121.77275 32076 ft 434 kts 275°
2026-04-19 07:13 31.19197 121.70434 32037 ft 437 kts 286°
2026-04-19 07:13 31.20888 121.63552 32037 ft 439 kts 285°
2026-04-19 07:14 31.22552 121.56702 32039 ft 439 kts 285°
2026-04-19 07:14 31.24227 121.49867 32039 ft 439 kts 285°
2026-04-19 07:15 31.25908 121.42999 32039 ft 439 kts 285°
2026-04-19 07:16 31.28420 121.32732 32038 ft 438 kts 286°
2026-04-19 07:16 31.30450 121.26025 32039 ft 440 kts 290°
2026-04-19 07:17 31.32567 121.19345 32039 ft 439 kts 289°
2026-04-19 07:17 31.34654 121.12639 32039 ft 438 kts 289°
2026-04-19 07:18 31.36720 121.05936 32038 ft 438 kts 289°
2026-04-19 07:18 31.38757 120.99223 32039 ft 438 kts 289°
2026-04-19 07:19 31.40804 120.92488 32039 ft 439 kts 290°
2026-04-19 07:19 31.42835 120.85780 32039 ft 439 kts 290°
2026-04-19 07:20 31.44862 120.79061 32039 ft 439 kts 290°
2026-04-19 07:20 31.46901 120.72293 32039 ft 438 kts 290°
2026-04-19 07:21 31.48926 120.65559 32039 ft 439 kts 290°
2026-04-19 07:21 31.50954 120.58811 32038 ft 440 kts 291°
2026-04-19 07:22 31.52981 120.52052 32038 ft 439 kts 291°
2026-04-19 07:22 31.55000 120.45280 32039 ft 440 kts 291°
2026-04-19 07:23 31.57014 120.38507 32039 ft 441 kts 291°
2026-04-19 07:23 31.58654 120.31567 32038 ft 445 kts 282°
2026-04-19 07:24 31.59212 120.24322 32039 ft 447 kts 276°
2026-04-19 07:24 31.59619 120.17071 32039 ft 447 kts 277°
2026-04-19 07:25 31.60010 120.09822 32039 ft 448 kts 276°
2026-04-19 07:25 31.60379 120.02538 32039 ft 447 kts 276°
2026-04-19 07:26 31.60737 119.95245 32039 ft 448 kts 277°
2026-04-19 07:26 31.61087 119.87926 32039 ft 448 kts 277°
2026-04-19 07:27 31.61427 119.80656 32039 ft 448 kts 277°
2026-04-19 07:27 31.61763 119.73370 32039 ft 448 kts 277°
2026-04-19 07:28 31.62096 119.66070 32039 ft 448 kts 277°
2026-04-19 07:28 31.62453 119.58772 32039 ft 448 kts 277°
2026-04-19 07:29 31.62808 119.51514 32039 ft 448 kts 277°
2026-04-19 07:29 31.63153 119.44218 32039 ft 448 kts 277°
2026-04-19 07:30 31.63497 119.36912 32039 ft 447 kts 277°
2026-04-19 07:30 31.63830 119.29640 32039 ft 448 kts 277°
2026-04-19 07:31 31.64158 119.22390 32039 ft 448 kts 277°
2026-04-19 07:31 31.64486 119.15057 32039 ft 448 kts 277°
2026-04-19 07:32 31.64844 119.07755 32039 ft 449 kts 278°
2026-04-19 07:32 31.65263 119.00469 32038 ft 448 kts 279°
2026-04-19 07:33 31.65845 118.93225 32038 ft 448 kts 279°
2026-04-19 07:33 31.66395 118.85931 32039 ft 449 kts 279°
2026-04-19 07:34 31.66942 118.78637 32038 ft 451 kts 280°
2026-04-19 07:34 31.67488 118.71278 32039 ft 452 kts 280°
2026-04-19 07:35 31.68017 118.64055 32036 ft 434 kts 280°
2026-04-19 07:35 31.68262 118.60599 32039 ft 414 kts 281°
2026-04-19 07:35 31.68499 118.57288 32041 ft 405 kts 281°
2026-04-19 07:36 31.68992 118.50632 32041 ft 416 kts 281°
2026-04-19 07:36 31.69482 118.43832 32038 ft 418 kts 281°
2026-04-19 07:37 31.69960 118.37074 31848 ft 419 kts 281°
2026-04-19 07:37 31.70201 118.33672 31593 ft 417 kts 281°
2026-04-19 07:37 31.70436 118.30302 31255 ft 411 kts 281°
2026-04-19 07:37 31.70663 118.27003 30751 ft 405 kts 281°
2026-04-19 07:38 31.70888 118.23769 30225 ft 400 kts 281°
2026-04-19 07:38 31.71118 118.20531 29695 ft 399 kts 281°
2026-04-19 07:38 31.71353 118.17247 29150 ft 400 kts 281°
2026-04-19 07:38 31.71523 118.14008 28591 ft 399 kts 277°
2026-04-19 07:39 31.71444 118.10757 28055 ft 398 kts 272°
2026-04-19 07:39 31.71096 118.07548 27462 ft 400 kts 265°
2026-04-19 07:39 31.70478 118.04379 26906 ft 398 kts 262°
2026-04-19 07:39 31.69837 118.01251 26356 ft 393 kts 263°
2026-04-19 07:40 31.69228 117.98158 25826 ft 388 kts 263°
2026-04-19 07:40 31.68613 117.95067 25290 ft 384 kts 262°
2026-04-19 07:40 31.68001 117.92049 24770 ft 380 kts 262°
2026-04-19 07:40 31.67388 117.89054 24250 ft 375 kts 262°
2026-04-19 07:41 31.66781 117.86089 23734 ft 371 kts 262°
2026-04-19 07:41 31.66185 117.83186 23227 ft 367 kts 262°
2026-04-19 07:41 31.65593 117.80304 22722 ft 363 kts 262°
2026-04-19 07:41 31.65000 117.77425 22220 ft 359 kts 262°
2026-04-19 07:42 31.64419 117.74620 21729 ft 355 kts 261°
2026-04-19 07:42 31.63831 117.71783 21233 ft 359 kts 261°
2026-04-19 07:42 31.63243 117.68948 20726 ft 357 kts 261°
2026-04-19 07:42 31.62661 117.66155 20231 ft 353 kts 261°
2026-04-19 07:43 31.62117 117.63372 19751 ft 347 kts 264°
2026-04-19 07:43 31.61866 117.60594 19268 ft 339 kts 274°
2026-04-19 07:43 31.62099 117.57904 18796 ft 332 kts 285°
2026-04-19 07:43 31.62733 117.55296 18317 ft 334 kts 293°
2026-04-19 07:44 31.63702 117.52859 17838 ft 327 kts 304°
2026-04-19 07:44 31.64995 117.50689 17394 ft 321 kts 308°
2026-04-19 07:44 31.66302 117.48589 16940 ft 321 kts 307°
2026-04-19 07:44 31.67600 117.46449 16480 ft 325 kts 307°
2026-04-19 07:45 31.68916 117.44282 16009 ft 320 kts 307°
2026-04-19 07:45 31.70196 117.42184 15555 ft 316 kts 307°
2026-04-19 07:45 31.71463 117.40105 15106 ft 313 kts 307°
2026-04-19 07:45 31.72735 117.38014 14657 ft 317 kts 307°
2026-04-19 07:46 31.74000 117.35936 14200 ft 315 kts 307°
2026-04-19 07:46 31.75276 117.33837 13741 ft 310 kts 306°
2026-04-19 07:46 31.76508 117.31810 13304 ft 307 kts 306°
2026-04-19 07:46 31.77757 117.29759 12856 ft 312 kts 306°
2026-04-19 07:47 31.79031 117.27687 12395 ft 308 kts 307°
2026-04-19 07:47 31.80276 117.25670 11949 ft 305 kts 307°
2026-04-19 07:47 31.81507 117.23667 11514 ft 301 kts 306°
2026-04-19 07:47 31.82723 117.21690 11147 ft 298 kts 306°
2026-04-19 07:48 31.84070 117.19852 10660 ft 302 kts 320°
2026-04-19 07:48 31.85812 117.18543 10346 ft 293 kts 330°
2026-04-19 07:48 31.87565 117.17392 10202 ft 280 kts 330°
2026-04-19 07:48 31.89228 117.16266 9976 ft 272 kts 329°
2026-04-19 07:49 31.90835 117.15179 9613 ft 269 kts 329°
2026-04-19 07:49 31.92451 117.14088 9270 ft 266 kts 329°
2026-04-19 07:49 31.94043 117.13011 8937 ft 263 kts 329°
2026-04-19 07:49 31.95617 117.11947 8585 ft 261 kts 329°
2026-04-19 07:50 31.97177 117.10891 8257 ft 258 kts 329°
2026-04-19 07:50 31.98728 117.09841 7933 ft 255 kts 329°
2026-04-19 07:50 32.00269 117.08798 7614 ft 260 kts 329°
2026-04-19 07:50 32.01837 117.07737 7281 ft 257 kts 329°
2026-04-19 07:51 32.03372 117.06697 6962 ft 258 kts 329°
2026-04-19 07:51 32.04927 117.05643 6637 ft 259 kts 329°
2026-04-19 07:51 32.06504 117.04573 6305 ft 261 kts 329°
2026-04-19 07:51 32.08073 117.03509 5976 ft 262 kts 329°
2026-04-19 07:52 32.09656 117.02434 5639 ft 264 kts 329°
2026-04-19 07:52 32.11247 117.01356 5305 ft 265 kts 329°
2026-04-19 07:52 32.12832 117.00279 4967 ft 264 kts 329°
2026-04-19 07:52 32.14423 116.99199 4629 ft 260 kts 329°
2026-04-19 07:53 32.15948 116.98162 4386 ft 251 kts 329°
2026-04-19 07:53 32.17426 116.97156 4307 ft 237 kts 329°
2026-04-19 07:53 32.18782 116.96148 4216 ft 224 kts 317°
2026-04-19 07:53 32.19606 116.94647 4133 ft 222 kts 285°
2026-04-19 07:54 32.19667 116.92825 3873 ft 223 kts 257°
2026-04-19 07:54 32.19060 116.91187 3622 ft 220 kts 238°
2026-04-19 07:54 32.18278 116.89629 3379 ft 220 kts 239°
2026-04-19 07:54 32.17495 116.88073 3157 ft 216 kts 234°
2026-04-19 07:55 32.16399 116.87018 3093 ft 205 kts 199°
2026-04-19 07:55 32.14983 116.86884 2942 ft 206 kts 169°
2026-04-19 07:55 32.13695 116.87561 2797 ft 204 kts 146°
2026-04-19 07:55 32.12487 116.88429 2638 ft 204 kts 151°
2026-04-19 07:56 32.11259 116.89246 2437 ft 204 kts 150°
2026-04-19 07:56 32.10028 116.90080 2245 ft 200 kts 150°
2026-04-19 07:56 32.08830 116.90892 2077 ft 201 kts 150°
2026-04-19 07:56 32.07611 116.91719 1898 ft 202 kts 150°
2026-04-19 07:57 32.06430 116.92520 1645 ft 187 kts 149°
2026-04-19 07:57 32.05338 116.93259 1407 ft 178 kts 149°
2026-04-19 07:57 32.04330 116.93942 1184 ft 157 kts 149°
2026-04-19 07:57 32.03447 116.94540 1001 ft 139 kts 149°
2026-04-19 07:58 32.02609 116.95110 795 ft 139 kts 149°
2026-04-19 07:58 32.01773 116.95676 612 ft 139 kts 149°
2026-04-19 07:58 32.00940 116.96240 430 ft 139 kts 149°
2026-04-19 07:58 32.00094 116.96810 266 ft 139 kts 149°
2026-04-19 07:59 31.99350 116.97311 217 ft 74 kts 150°
2026-04-19 07:59 31.99242 116.97383 217 ft 0 kts 150°